THOR ABLESTAR DEB, 560

Orbit data source: Space-Track

THOR ABLESTAR DEB, 560 is space debris in LEO originally from a launch on Thu, 29 Jun 1961 UTC launched from the Air Force Eastern Test Range (AFETR). Debris objects in space refer to the collection of defunct objects orbiting the Earth. Examples of debris include non-operational satellites, rocket bodies, and fragments generated from explosions, collisions, or faulty payload assembly.

Loading next visibility...
Identifier
560, 1961-015GS
Orbit
LEO
Country
Flag of USUS
Related business
Manufacturer
Unknown
Mission
Spacecraft
Bus & Motor
Unknown
Mass
Unknown
Launch date (UTC)
1961-06-29 (64 years ago)
Launch vehicle
Unknown
Launch site
Air Force Eastern Test Range (AFETR)
Object type
Payload
Rocket body
Debris
Shape & HBR
Unknown shape, 0.1 m
Radar Cross Section
Small (<0.1 m²)

Expand to show TLE details & history
Last TLE update: 15 hours ago

TLE from 15 hours ago
0 THOR ABLESTAR DEB
1 00560U 61015GS  25299.65221936  .00002539  00000-0  26437-2 0  9998
2 00560  67.1600  66.3252 0303520 119.0703 244.1124 13.58529415122670
Epoch: 2025-10-26T15:39Z
TLE epoch observation values (Epoch: 2025-10-26T15:39:11.752Z)
Latitude
0.00001°
Longitude
156.26089°
Altitude
1,146.869 km
Speed
7.229 km/s
True Right ascension
04h 25m 18s
True Declination
0° 00' 00"
Sunlit
Object was in full shadow at epoch
Visualization orbit readout
Latitude
Unknown
Longitude
Unknown
Altitude
Unknown
Speed
Unknown
Apparent Right ascension
Unknown
Apparent Declination
Unknown
Sunlit
N/A
Visualization observer readout
Local Sidereal Time
02:21:36
Azimuth
Unknown
Elevation
Unknown
Doppler factor
Unknown
Orbital elements
Apogee altitude
1,264.555 km
Perigee altitude
814.28 km
Semi-major axis
7,417.554 km
Eccentricity
0.03035
Inclination
67.16°
RAAN
66.3252°
Arg. of periapsis
119.0703°
True anomaly
241.03583°
Mean anomaly
244.1124°
Eccentric anomaly
242.56889°
Mean motion
3.39744 °/min
Orbital period
105.96 mins
BSTAR
0.0026437
Loading maneuver chart data...
Computing Atmospheric mass density...

Documentation

Showing up to 5 results
|